EW9276 Weather Reports


time (UTC)temp
F
wind
direction
speed
knots
gust
knots
rain 1hr
in
rain 24hr
in
rain mn
in
humidity
%
barometer
mb
20260507064455 43 96 0.0 0.0 0.00 0.00 0.00 98 1014.2
20260507062951 43 83 0.0 0.0 0.00 0.00 0.00 97 1014.1
20260507061456 44 94 0.0 0.0 0.00 0.00 0.00 95 1014.4
20260507061452 43 96 0.0 0.0 0.00 0.00 0.00 97 1014.3
20260507055949 44 88 0.0 0.0 0.00 0.00 0.00 96 1014.3
20260507054553 45 95 0.0 0.0 0.00 0.00 0.00 93 1014.4
20260507053055 46 97 0.0 0.0 0.00 0.00 0.00 91 1014.6
20260507045948 47 84 0.0 0.0 0.00 0.00 0.00 87 1014.5
20260507045944 46 86 0.0 0.0 0.00 0.00 0.00 89 1014.7
20260507042941 47 73 0.0 0.0 0.00 0.00 0.00 87 1014.6
20260507042936 49 69 0.0 0.0 0.00 0.00 0.00 84 1014.3
20260507035930 0 0.0 0.0 0.00 0.00 0.00 1014.5
20260507035924 49 59 0.0 0.0 0.00 0.00 0.00 80 1014.4
20260507032918 50 83 0.0 0.0 0.00 0.00 0.00 79 1014.4
20260507031412 0 0.0 0.0 0.00 0.00 0.00 1014.6
20260507025907 0 0.0 0.0 0.00 0.00 0.00 1014.5
20260507025901 10 307 86.9 67.8 0.00 0.00 0.00 68 1014.6
20260507024355 0 0.0 0.0 0.00 0.00 0.00 1014.5
20260507021348 0 0.0 7.0 0.00 0.00 0.00 1014.5
20260507015844 0 0.0 0.0 0.00 0.00 0.00 1014.1
20260507014339 0 0.0 4.3 0.00 0.00 0.00 1013.9
20260507012834 0 0.0 0.0 0.00 0.00 0.00 1013.7
20260507011328 0 0.0 0.0 0.00 0.00 0.00 1013.8
20260507005826 56 349 2.6 11.3 0.00 0.00 0.00 60 1013.1
20260507005822 0 0.0 0.0 0.00 0.00 0.00 1013.7
20260507004316 56 307 5.2 11.3 0.00 0.00 0.00 62 1013.6
20260507002922 56 322 7.8 14.8 0.00 0.00 0.00 58 1012.7
20260506235814 57 339 9.6 14.8 0.00 0.00 0.00 58 1012.6
20260506234318 58 297 4.3 8.7 0.00 0.00 0.00 61 1012.3
20260506234314 57 318 3.5 14.8 0.00 0.00 0.00 60 1012.3
20260506231308 58 312 5.2 11.3 0.00 0.00 0.00 61 1012.3
20260506225805 58 340 11.3 14.8 0.00 0.00 0.00 60 1012.6
20260506224300 58 292 4.3 17.4 0.00 0.00 0.00 61 1012.8
20260506222757 60 351 8.7 11.3 0.00 0.00 0.00 60 1012.8
20260506221253 0 0.0 7.0 0.00 0.00 0.00 1012.7
20260506221248 60 84 6.1 11.3 0.00 0.00 0.00 59 1012.6
20260506214244 60 355 4.3 8.7 0.00 0.00 0.00 57 1012.3
20260506212738 0 0.0 0.0 0.00 0.00 0.00 1012.0
20260506211232 62 13 5.2 7.0 0.00 0.00 0.00 56 1011.7
20260506205726 63 338 5.2 11.3 0.00 0.00 0.00 56 1011.8
20260506204221 0 0.0 0.0 0.00 0.00 0.00 1011.8
20260506202715 52 0.0 0.0 0.00 0.00 0.00 61 1012.0
20260506201210 0 0.0 0.0 0.00 0.00 0.00 1011.9
20260506201204 63 303 7.8 8.7 0.00 0.00 0.00 52 1011.9
20260506194159 62 310 2.6 11.3 0.00 0.00 0.00 52 1011.8
20260506192657 62 16 7.8 13.0 0.00 0.00 0.00 52 1011.6
20260506192651 62 342 5.2 13.0 0.00 0.00 0.00 54 1011.7
20260506185645 62 145 6.1 11.3 0.00 0.00 0.00 56 1011.7
20260506184144 61 348 10.4 14.8 0.00 0.00 0.00 56 1011.8
20260506184138 61 316 5.2 20.0 0.00 0.00 0.00 61 1011.9
20260506181136 60 322 7.8 14.8 0.00 0.00 0.00 59 1012.0
20260506175635 60 18 4.3 11.3 0.00 0.00 0.00 62 1011.9
20260506174135 60 308 7.0 8.7 0.00 0.00 0.00 64 1012.0
20260506172629 0 0.0 0.0 0.00 0.00 0.00 1012.2
20260506171123 59 20 4.3 13.0 0.00 0.00 0.00 66 1012.0
20260506165622 57 18 5.2 8.7 0.00 0.00 0.00 68 1012.0
20260506164118 57 328 4.3 14.8 0.00 0.00 0.00 71 1012.2
20260506162617 56 341 8.7 17.4 0.00 0.00 0.00 72 1012.2
20260506161115 55 313 1.7 11.3 0.00 0.00 0.00 78 1012.1
20260506155614 54 317 4.3 13.0 0.00 0.00 0.00 80 1012.0
20260506154111 53 350 5.2 14.8 0.00 0.00 0.00 83 1012.0
20260506152609 53 318 2.6 11.3 0.00 0.00 0.00 86 1012.0
20260506151108 52 301 3.5 14.8 0.00 0.00 0.00 88 1011.6
20260506145607 52 321 1.7 13.0 0.00 0.00 0.00 88 1011.4
20260506144105 50 336 7.0 11.3 0.00 0.00 0.00 94 1011.1
20260506142607 49 356 2.6 8.7 0.00 0.00 0.00 99 1010.9
20260506142602 50 35 5.2 11.3 0.00 0.00 0.00 98 1010.9
20260506135557 49 11 0.0 7.0 0.00 0.00 0.00 99 1010.9
20260506134053 49 309 7.0 7.0 0.00 0.00 0.00 99 1010.6
20260506132546 49 299 3.5 4.3 0.00 0.00 0.00 99 1010.6
20260506131042 0 0.0 0.0 0.00 0.00 0.00 1010.4
20260506125535 0 0.0 0.0 0.00 0.00 0.00 1010.0
20260506124029 0 0.0 0.0 0.00 0.00 0.00 1009.7
20260506122522 0 0.0 0.0 0.00 0.00 0.00 1009.8
20260506121018 0 0.0 0.0 0.00 0.00 0.00 1009.5
20260506115509 73 0.0 0.0 0.00 0.00 0.00 46 1009.3
20260506114005 0 0.0 0.0 0.00 0.00 0.00 1008.5
20260506112459 0 0.0 0.0 0.00 0.00 0.00 1008.4
20260506110953 56 0.0 0.0 0.00 0.00 0.00 8 1007.8
20260506105446 0 0.0 0.0 0.00 0.00 0.00 1007.5
20260506105441 0 0.0 0.0 0.00 0.00 0.00 1007.6
20260506102433 0 0.0 0.0 0.00 0.00 0.00 1007.7
20260506100928 51 0.0 0.0 0.00 0.00 0.00 100 1007.3
20260506095422 0 0.0 0.0 0.00 0.00 0.00 1007.2
20260506093916 0 0.0 7.0 0.00 0.00 0.00 1006.8
20260506092411 0 0.0 0.0 0.00 0.00 0.00 1007.1
20260506092406 0 0.0 0.0 0.00 0.00 0.00 1006.9
20260506085357 0 0.0 0.0 0.00 0.00 0.00 1006.3
20260506083852 0 0.0 0.0 0.00 0.00 0.00 1006.4
20260506082346 0 0.0 0.0 0.00 0.00 0.00 1006.5
20260506080840 0 0.0 0.0 0.00 0.00 0.00 1006.4
20260506072321 0 0.0 0.0 0.00 0.00 0.00 1005.7
20260506070815 0 0.0 0.0 0.00 0.00 0.00 1005.6